PST,Max TemperatureF,Mean TemperatureF,Min TemperatureF,Max Dew PointF,MeanDew PointF,Min DewpointF,Max Humidity, Mean Humidity, Min Humidity, Max Sea Level PressureIn, Mean Sea Level PressureIn, Min Sea Level PressureIn, Max VisibilityMiles, Mean VisibilityMiles, Min VisibilityMiles, Max Wind SpeedMPH, Mean Wind SpeedMPH, Max Gust SpeedMPH,PrecipitationIn, CloudCover, Events, WindDirDegrees
2014-2-1,66,56,46,26,15,5,35,22,9,30.04,29.99,29.93,10,10,10,22,9,26,0.00,0,,333
2014-2-2,63,53,43,41,28,9,68,45,21,30.06,30.00,29.93,10,10,10,18,7,25,T,3,Rain,155
2014-2-3,65,55,45,39,33,28,65,46,26,29.96,29.90,29.83,10,10,10,18,6,23,0.00,1,,291
2014-2-4,63,53,43,43,36,28,62,49,36,30.05,30.01,29.95,10,10,10,12,3,15,0.00,2,,177
2014-2-5,66,57,48,44,38,23,71,45,19,30.11,30.04,29.98,10,10,9,13,5,18,0.00,2,,222
2014-2-6,60,57,53,49,46,40,83,67,51,30.05,29.99,29.95,10,7,2,12,5,18,0.07,7,Rain,134
2014-2-7,63,57,51,48,46,42,83,66,48,30.20,30.10,30.01,10,7,2,12,3,14,0.00,4,,255
2014-2-8,67,59,50,50,46,43,77,61,45,30.25,30.20,30.16,10,10,10,12,4,16,0.00,2,,257
2014-2-9,69,61,52,50,48,45,83,66,48,30.20,30.13,30.06,10,8,5,8,2,12,0.00,4,,159
2014-2-10,79,65,50,49,43,33,80,50,19,30.12,30.05,29.96,10,8,3,23,6,30,0.00,0,,333
2014-2-11,78,65,51,47,41,35,77,51,25,30.06,30.03,29.99,10,10,10,12,2,15,0.00,0,,122
2014-2-12,85,69,52,36,29,21,51,31,10,30.12,30.06,30.00,10,10,10,10,3,26,0.00,0,,180
2014-2-13,85,69,53,44,35,28,46,30,14,30.05,30.00,29.94,10,10,9,12,3,17,0.00,0,,164
2014-2-14,88,70,51,43,33,24,51,32,13,30.03,29.98,29.93,10,10,9,14,3,23,0.00,0,,103
2014-2-15,85,69,53,46,36,27,52,33,14,30.01,29.96,29.93,10,9,6,9,2,15,0.00,0,,160
2014-2-16,80,68,55,52,43,33,65,45,24,30.04,29.98,29.93,10,9,6,12,4,15,0.00,0,,151
2014-2-17,75,64,52,52,47,41,80,58,35,30.05,30.01,29.96,10,10,7,13,5,,0.00,1,,151
2014-2-18,72,63,54,51,48,45,80,60,40,30.06,29.99,29.94,9,6,4,10,2,13,0.00,3,,157
2014-2-19,79,65,50,51,46,22,83,49,14,30.00,29.93,29.85,10,6,0,20,6,24,0.00,1,Fog,121
2014-2-20,82,68,53,48,35,25,77,45,13,30.00,29.95,29.91,10,9,6,20,3,26,0.00,0,,180
2014-2-21,80,65,50,43,31,24,50,32,13,29.97,29.91,29.84,10,10,10,10,4,15,0.00,0,,144
2014-2-22,77,63,48,46,35,28,60,39,18,29.91,29.87,29.82,10,10,10,12,3,15,0.00,0,,176
2014-2-23,75,61,47,50,37,25,77,47,16,29.97,29.92,29.88,10,10,6,10,3,15,0.00,0,,149
2014-2-24,74,61,48,52,43,34,89,57,25,30.03,29.95,29.89,10,8,3,13,4,15,0.00,1,,171
2014-2-25,70,60,50,51,48,44,86,63,40,30.03,29.98,29.92,10,7,3,14,4,23,0.00,5,,180
2014-2-26,64,60,55,54,49,44,83,68,52,30.06,30.01,29.97,10,10,5,13,7,18,0.07,8,Rain,151
2014-2-27,69,62,54,54,51,43,100,70,39,30.00,29.92,29.82,10,8,2,16,8,23,0.00,5,Rain,139
2014-2-28,59,56,53,58,53,48,93,87,80,29.79,29.68,29.59,10,4,1,25,13,36,1.28,8,Rain,153